Concordia, KS

9:21 AM CDT on September 18, 2019 (GMT -0500)
Blosser Municipal

Weather History for KCNK - July, 2019

Change the Weather History Date:

Monday, July 15, 2019

  Actual Average Record
Temperature  
Mean Temperature 81 °F 79 °F  
Max Temperature 90 °F 91 °F 110 °F (1934)
Min Temperature 72 °F 68 °F 50 °F (2014)
Degree Days  
Heating Degree Days 0 0  
Month to date heating degree days 0 0  
Since 1 June heating degree days 0 13  
Since 1 July heating degree days 0 0  
Cooling Degree Days 16 14  
Month to date cooling degree days 218 206  
Year to date cooling degree days 639 560  
Since 1 June cooling degree days 539 471  
Growing Degree Days 31 (Base 50)    
Moisture  
Dew Point 71 °F    
Average Humidity 70    
Maximum Humidity 87    
Minimum Humidity 52    
Precipitation  
Precipitation 0.00 in 0.13 in 2.40 in (1946)
Month to date precipitation 3.14 2.09  
Year to date precipitation 22.21 16.13  
Snow  
Snow 0.00 in 0.00 in 0.00 in ()
Month to date snowfall 0.0 0.0  
Year to date snowfall 32.3 13.7  
Since 1 July snowfall 0.0 0.0  
Snow Depth 0.00 in    
Sea Level Pressure  
Sea Level Pressure 29.90 in    
Wind  
Wind Speed 8 mph (SSE)    
Max Wind Speed 16 mph    
Max Gust Speed 21 mph    
Visibility 10 miles    
Events      
T = Trace of Precipitation, MM = Missing Value Source: NWS Daily Summary

Daily Weather History Graph

Daily Weather History Graph

Search for Another Location

Airport or City:

Astronomy

Jul. 15, 2019 Rise Set
Actual Time 6:15 AM CDT 8:57 PM CDT
Civil Twilight 5:44 AM CDT 9:28 PM CDT
Nautical Twilight 5:04 AM CDT 10:08 PM CDT
Astronomical Twilight 4:19 AM CDT 10:52 PM CDT
Moon 8:15 PM CDT (7/15) 5:04 AM CDT (7/15)
Length of Visible Light 15h 44m
Length of Day
14h 41m
Waxing Gibbous, 99% of the Moon is Illuminated
Jul 15
Waxing Gibbous
Jul 16
Full
Jul 24
Last Quarter
Jul 31
New
Aug 7
First Quarter

Hourly Weather History & Observations

Time (CDT) Temp. Heat Index Dew Point Humidity Pressure Visibility Wind Dir Wind Speed Gust Speed Precip Events Conditions
12:55 AM 80.1 °F 83.8 °F 72.0 °F 76% 29.93 in 10.0 mi South 13.8 mph 23.0 mph N/A   Clear
1:55 AM 78.1 °F - 72.0 °F 81% 29.93 in 10.0 mi South 11.5 mph - N/A   Clear
2:55 AM 75.9 °F - 71.1 °F 85% 29.93 in 10.0 mi South 10.4 mph - N/A   Clear
3:55 AM 75.0 °F - 71.1 °F 87% 29.93 in 10.0 mi South 5.8 mph - N/A   Clear
4:55 AM 73.9 °F - 70.0 °F 87% 29.94 in 10.0 mi SSE 4.6 mph - N/A   Clear
5:55 AM 73.0 °F - 70.0 °F 90% 29.94 in 10.0 mi SE 6.9 mph - N/A   Clear
7:55 AM 75.9 °F - 71.1 °F 85% 29.94 in 10.0 mi South 9.2 mph - N/A   Clear
8:55 AM 79.0 °F - 71.1 °F 77% 29.94 in 10.0 mi South 15.0 mph - N/A   Clear
9:55 AM 82.0 °F 86.7 °F 72.0 °F 71% 29.94 in 10.0 mi SSE 9.2 mph - N/A   Clear
10:55 AM 84.0 °F 90.2 °F 73.0 °F 69% 29.93 in 10.0 mi SSE 9.2 mph - N/A   Partly Cloudy
11:55 AM 84.9 °F 91.4 °F 73.0 °F 67% 29.91 in 10.0 mi South 6.9 mph - N/A   Clear
12:55 PM 87.1 °F 94.5 °F 73.0 °F 63% 29.89 in 10.0 mi SSE 5.8 mph - N/A   Clear
1:55 PM 88.0 °F 94.7 °F 72.0 °F 59% 29.88 in 10.0 mi SSE 8.1 mph - N/A   Clear
2:55 PM 90.0 °F 96.9 °F 72.0 °F 55% 29.88 in 10.0 mi ESE 9.2 mph - N/A   Partly Cloudy
3:55 PM 90.0 °F 96.4 °F 71.1 °F 54% 29.87 in 10.0 mi ESE 6.9 mph - N/A   Clear
4:55 PM 90.0 °F 96.4 °F 71.1 °F 54% 29.85 in 10.0 mi SE 6.9 mph - N/A   Clear
5:55 PM 89.1 °F 94.1 °F 70.0 °F 53% 29.84 in 10.0 mi SE 8.1 mph - N/A   Clear
6:55 PM 88.0 °F 92.9 °F 70.0 °F 55% 29.83 in 10.0 mi North - - N/A   Clear
7:55 PM 86.0 °F 92.2 °F 72.0 °F 63% 29.84 in 10.0 mi ESE 5.8 mph - N/A   Clear
8:55 PM 80.1 °F 83.2 °F 70.0 °F 71% 29.85 in 10.0 mi ESE 6.9 mph - N/A   Clear
9:55 PM 77.0 °F - 70.0 °F 79% 29.85 in 10.0 mi SE 8.1 mph - N/A   Clear
10:55 PM 75.9 °F - 70.0 °F 82% 29.87 in 10.0 mi SE 8.1 mph - N/A   Clear
11:55 PM 75.0 °F - 70.0 °F 84% 29.87 in 10.0 mi SSE 5.8 mph - N/A   Clear